Time,TemperatureF,DewpointF,PressureIn,WindDirection,WindDirectionDegrees,WindSpeedMPH,WindSpeedGustMPH,Humidity,HourlyPrecipIn,Conditions,Clouds,dailyrainin,SoftwareType,DateUTC
2013-05-05 00:00:00,56.7,43.0,30.43,NNE,26,1.0,1.0,60,0.00,,,0.00,Wunderground v.1.15,2013-05-05 04:00:00,
2013-05-05 00:05:00,55.7,42.5,30.43,NNE,26,0.0,1.0,61,0.00,,,0.00,Wunderground v.1.15,2013-05-05 04:05:00,
2013-05-05 00:10:00,55.1,43.1,30.43,NNE,26,0.0,0.0,64,0.00,,,0.00,Wunderground v.1.15,2013-05-05 04:10:00,
2013-05-05 00:15:00,54.0,43.3,30.43,NNE,26,0.0,2.0,67,0.00,,,0.00,Wunderground v.1.15,2013-05-05 04:15:00,
2013-05-05 00:20:00,53.4,43.1,30.43,NNE,26,0.0,0.0,68,0.00,,,0.00,Wunderground v.1.15,2013-05-05 04:20:00,
2013-05-05 00:25:00,53.0,43.5,30.43,NNE,26,0.0,0.0,70,0.00,,,0.00,Wunderground v.1.15,2013-05-05 04:25:00,
2013-05-05 00:30:00,52.0,43.3,30.43,NNE,26,0.0,0.0,72,0.00,,,0.00,Wunderground v.1.15,2013-05-05 04:30:00,
2013-05-05 00:35:00,51.6,42.5,30.43,NNE,26,0.0,0.0,71,0.00,,,0.00,Wunderground v.1.15,2013-05-05 04:35:00,
2013-05-05 00:40:00,51.4,43.0,30.43,NNE,26,0.0,0.0,73,0.00,,,0.00,Wunderground v.1.15,2013-05-05 04:40:00,
2013-05-05 00:50:00,50.3,42.3,30.43,NNE,26,0.0,0.0,74,0.00,,,0.00,Wunderground v.1.15,2013-05-05 04:50:00,
2013-05-05 00:55:00,50.5,42.2,30.43,NNE,26,0.0,0.0,73,0.00,,,0.00,Wunderground v.1.15,2013-05-05 04:55:00,
2013-05-05 01:00:00,50.5,42.5,30.43,NNE,26,0.0,0.0,74,0.00,,,0.00,Wunderground v.1.15,2013-05-05 05:00:00,
2013-05-05 01:05:00,50.1,42.5,30.43,NNE,26,0.0,5.0,75,0.00,,,0.00,Wunderground v.1.15,2013-05-05 05:05:00,
2013-05-05 01:10:00,49.6,42.3,30.43,NNE,26,0.0,5.0,76,0.00,,,0.00,Wunderground v.1.15,2013-05-05 05:10:00,
2013-05-05 01:20:00,48.8,42.2,30.43,NNE,26,0.0,5.0,78,0.00,,,0.00,Wunderground v.1.15,2013-05-05 05:20:00,
2013-05-05 01:25:00,48.3,42.1,30.43,NNE,26,0.0,5.0,79,0.00,,,0.00,Wunderground v.1.15,2013-05-05 05:25:00,
2013-05-05 01:30:00,47.9,42.0,30.43,NNE,26,0.0,5.0,80,0.00,,,0.00,Wunderground v.1.15,2013-05-05 05:30:00,
2013-05-05 01:35:00,48.1,42.5,30.42,NNE,26,0.0,5.0,81,0.00,,,0.00,Wunderground v.1.15,2013-05-05 05:35:00,
2013-05-05 01:40:00,47.9,42.3,30.42,NNE,26,0.0,5.0,81,0.00,,,0.00,Wunderground v.1.15,2013-05-05 05:40:00,
2013-05-05 01:45:00,47.6,42.4,30.42,NNE,26,1.0,5.0,82,0.00,,,0.00,Wunderground v.1.15,2013-05-05 05:45:00,
2013-05-05 01:55:00,47.8,42.6,30.42,NNE,26,1.0,5.0,82,0.00,,,0.00,Wunderground v.1.15,2013-05-05 05:55:00,
2013-05-05 02:00:00,47.6,42.4,30.42,NNE,26,1.0,5.0,82,0.00,,,0.00,Wunderground v.1.15,2013-05-05 06:00:00,
2013-05-05 02:05:00,47.4,42.5,30.42,NNE,26,1.0,5.0,83,0.00,,,0.00,Wunderground v.1.15,2013-05-05 06:05:00,
2013-05-05 02:10:00,47.1,42.2,30.42,NNE,26,1.0,1.0,83,0.00,,,0.00,Wunderground v.1.15,2013-05-05 06:10:00,
2013-05-05 02:15:00,46.7,41.8,30.42,NNE,26,1.0,2.0,83,0.00,,,0.00,Wunderground v.1.15,2013-05-05 06:15:00,
2013-05-05 02:20:00,46.4,41.8,30.42,NNE,26,1.0,5.0,84,0.00,,,0.00,Wunderground v.1.15,2013-05-05 06:20:00,
2013-05-05 02:25:00,46.2,41.9,30.43,NNE,26,2.0,5.0,85,0.00,,,0.00,Wunderground v.1.15,2013-05-05 06:25:00,
2013-05-05 02:30:00,46.8,42.5,30.43,South,187,4.0,5.0,85,0.00,,,0.00,Wunderground v.1.15,2013-05-05 06:30:00,
2013-05-05 02:35:00,47.2,42.3,30.43,South,187,4.0,5.0,83,0.00,,,0.00,Wunderground v.1.15,2013-05-05 06:35:00,
2013-05-05 02:40:00,47.6,42.7,30.43,South,187,3.0,3.0,83,0.00,,,0.00,Wunderground v.1.15,2013-05-05 06:40:00,
2013-05-05 02:45:00,47.9,42.7,30.43,South,187,2.0,5.0,82,0.00,,,0.00,Wunderground v.1.15,2013-05-05 06:45:00,
2013-05-05 02:50:00,47.8,42.3,30.43,South,187,1.0,5.0,81,0.00,,,0.00,Wunderground v.1.15,2013-05-05 06:50:00,
2013-05-05 03:00:00,47.6,42.1,30.42,South,187,2.0,5.0,81,0.00,,,0.00,Wunderground v.1.15,2013-05-05 07:00:00,
2013-05-05 03:05:00,47.7,42.5,30.42,South,187,1.0,5.0,82,0.00,,,0.00,Wunderground v.1.15,2013-05-05 07:05:00,
2013-05-05 03:10:00,47.6,42.4,30.42,South,187,1.0,5.0,82,0.00,,,0.00,Wunderground v.1.15,2013-05-05 07:10:00,
2013-05-05 03:15:00,47.3,42.1,30.42,South,187,1.0,5.0,82,0.00,,,0.00,Wunderground v.1.15,2013-05-05 07:15:00,
2013-05-05 03:20:00,46.9,41.7,30.43,South,187,2.0,5.0,82,0.00,,,0.00,Wunderground v.1.15,2013-05-05 07:20:00,
2013-05-05 03:29:00,46.9,42.0,30.42,South,187,2.0,2.0,83,0.00,,,0.00,Wunderground v.1.15,2013-05-05 07:29:00,
2013-05-05 03:34:00,47.0,42.1,30.43,South,187,1.0,3.0,83,0.00,,,0.00,Wunderground v.1.15,2013-05-05 07:34:00,
2013-05-05 03:39:00,47.0,41.8,30.43,South,187,1.0,5.0,82,0.00,,,0.00,Wunderground v.1.15,2013-05-05 07:39:00,
2013-05-05 03:44:00,46.6,41.4,30.43,South,187,1.0,5.0,82,0.00,,,0.00,Wunderground v.1.15,2013-05-05 07:44:00,
2013-05-05 03:49:00,47.0,42.1,30.43,South,186,2.0,5.0,83,0.00,,,0.00,Wunderground v.1.15,2013-05-05 07:49:00,
2013-05-05 03:54:00,47.0,41.8,30.43,South,186,3.0,5.0,82,0.00,,,0.00,Wunderground v.1.15,2013-05-05 07:54:00,
2013-05-05 04:00:00,47.1,41.9,30.43,South,187,3.0,5.0,82,0.00,,,0.00,Wunderground v.1.15,2013-05-05 08:00:00,
2013-05-05 04:05:00,47.3,41.8,30.43,South,187,3.0,5.0,81,0.00,,,0.00,Wunderground v.1.15,2013-05-05 08:05:00,
2013-05-05 04:10:00,47.3,41.8,30.43,South,187,3.0,5.0,81,0.00,,,0.00,Wunderground v.1.15,2013-05-05 08:10:00,
2013-05-05 04:15:00,47.3,41.8,30.42,South,187,4.0,5.0,81,0.00,,,0.00,Wunderground v.1.15,2013-05-05 08:15:00,
2013-05-05 04:20:00,47.4,41.9,30.42,South,187,4.0,5.0,81,0.00,,,0.00,Wunderground v.1.15,2013-05-05 08:20:00,
2013-05-05 04:25:00,48.1,42.2,30.43,South,183,4.0,5.0,80,0.00,,,0.00,Wunderground v.1.15,2013-05-05 08:25:00,
2013-05-05 04:35:00,47.7,41.2,30.43,South,183,3.0,5.0,78,0.00,,,0.00,Wunderground v.1.15,2013-05-05 08:35:00,
2013-05-05 04:40:00,47.2,41.0,30.43,South,183,3.0,5.0,79,0.00,,,0.00,Wunderground v.1.15,2013-05-05 08:40:00,
2013-05-05 04:45:00,46.7,41.2,30.43,South,183,3.0,5.0,81,0.00,,,0.00,Wunderground v.1.15,2013-05-05 08:45:00,
2013-05-05 04:50:00,47.0,41.8,30.43,South,183,2.0,5.0,82,0.00,,,0.00,Wunderground v.1.15,2013-05-05 08:50:00,
2013-05-05 04:55:00,47.5,41.6,30.43,South,185,2.0,5.0,80,0.00,,,0.00,Wunderground v.1.15,2013-05-05 08:55:00,
2013-05-05 05:05:00,47.4,41.5,30.43,South,188,3.0,5.0,80,0.00,,,0.00,Wunderground v.1.15,2013-05-05 09:05:00,
2013-05-05 05:10:00,47.4,41.5,30.43,SSW,202,5.0,5.0,80,0.00,,,0.00,Wunderground v.1.15,2013-05-05 09:10:00,
2013-05-05 05:15:00,47.4,41.5,30.43,SSW,205,5.0,5.0,80,0.00,,,0.00,Wunderground v.1.15,2013-05-05 09:15:00,
2013-05-05 05:20:00,47.6,41.7,30.43,SSW,205,5.0,6.0,80,0.00,,,0.00,Wunderground v.1.15,2013-05-05 09:20:00,
2013-05-05 05:25:00,47.9,41.4,30.43,SSW,211,5.0,6.0,78,0.00,,,0.00,Wunderground v.1.15,2013-05-05 09:25:00,
2013-05-05 05:30:00,48.1,41.6,30.43,SSW,211,5.0,5.0,78,0.00,,,0.00,Wunderground v.1.15,2013-05-05 09:30:00,
2013-05-05 05:40:00,48.8,41.6,30.43,SSW,212,4.0,6.0,76,0.00,,,0.00,Wunderground v.1.15,2013-05-05 09:40:00,
2013-05-05 05:45:00,49.0,41.4,30.43,SSW,211,4.0,6.0,75,0.00,,,0.00,Wunderground v.1.15,2013-05-05 09:45:00,
2013-05-05 05:50:00,49.0,41.4,30.44,SSW,211,4.0,4.0,75,0.00,,,0.00,Wunderground v.1.15,2013-05-05 09:50:00,
2013-05-05 05:55:00,48.9,41.3,30.44,SSW,211,2.0,5.0,75,0.00,,,0.00,Wunderground v.1.15,2013-05-05 09:55:00,
2013-05-05 06:00:00,49.1,41.2,30.44,South,183,1.0,4.0,74,0.00,,,0.00,Wunderground v.1.15,2013-05-05 10:00:00,
2013-05-05 06:10:00,49.0,41.4,30.45,South,182,1.0,1.0,75,0.00,,,0.00,Wunderground v.1.15,2013-05-05 10:10:00,
2013-05-05 06:15:00,48.8,41.2,30.45,South,182,0.0,1.0,75,0.00,,,0.00,Wunderground v.1.15,2013-05-05 10:15:00,
2013-05-05 06:20:00,48.4,41.2,30.45,South,182,0.0,0.0,76,0.00,,,0.00,Wunderground v.1.15,2013-05-05 10:20:00,
2013-05-05 06:25:00,48.6,41.7,30.45,South,182,0.0,0.0,77,0.00,,,0.00,Wunderground v.1.15,2013-05-05 10:25:00,
2013-05-05 06:30:00,48.8,41.9,30.46,South,182,0.0,0.0,77,0.00,,,0.00,Wunderground v.1.15,2013-05-05 10:30:00,
2013-05-05 06:35:00,49.0,42.1,30.46,South,182,1.0,3.0,77,0.00,,,0.00,Wunderground v.1.15,2013-05-05 10:35:00,
2013-05-05 06:45:00,50.0,42.4,30.46,South,180,3.0,4.0,75,0.00,,,0.00,Wunderground v.1.15,2013-05-05 10:45:00,
2013-05-05 06:50:00,50.5,42.5,30.46,South,180,3.0,3.0,74,0.00,,,0.00,Wunderground v.1.15,2013-05-05 10:50:00,
2013-05-05 06:55:00,50.4,42.4,30.46,South,180,2.0,3.0,74,0.00,,,0.00,Wunderground v.1.15,2013-05-05 10:55:00,
2013-05-05 07:00:00,51.0,44.0,30.46,South,174,2.0,3.0,77,0.00,,,0.00,Wunderground v.1.15,2013-05-05 11:00:00,
2013-05-05 07:05:00,52.1,43.3,30.46,SSE,155,3.0,6.0,72,0.00,,,0.00,Wunderground v.1.15,2013-05-05 11:05:00,
2013-05-05 07:15:00,53.1,43.6,30.46,SSE,158,4.0,7.0,70,0.00,,,0.00,Wunderground v.1.15,2013-05-05 11:15:00,
2013-05-05 07:20:00,53.8,43.9,30.46,SSE,153,3.0,7.0,69,0.00,,,0.00,Wunderground v.1.15,2013-05-05 11:20:00,
2013-05-05 07:25:00,54.2,43.9,30.46,SSE,159,3.0,7.0,68,0.00,,,0.00,Wunderground v.1.15,2013-05-05 11:25:00,
2013-05-05 07:30:00,54.7,44.0,30.47,SSE,159,3.0,7.0,67,0.00,,,0.00,Wunderground v.1.15,2013-05-05 11:30:00,
2013-05-05 07:35:00,55.2,44.0,30.47,SSE,161,4.0,7.0,66,0.00,,,0.00,Wunderground v.1.15,2013-05-05 11:35:00,
2013-05-05 07:40:00,55.7,44.5,30.47,SSE,162,4.0,7.0,66,0.00,,,0.00,Wunderground v.1.15,2013-05-05 11:40:00,
2013-05-05 07:45:00,56.0,44.4,30.47,SSE,161,4.0,7.0,65,0.00,,,0.00,Wunderground v.1.15,2013-05-05 11:45:00,
2013-05-05 07:54:00,56.7,44.7,30.47,SSE,157,3.0,7.0,64,0.00,,,0.00,Wunderground v.1.15,2013-05-05 11:54:00,
2013-05-05 07:59:00,57.3,45.2,30.47,SSE,159,3.0,3.0,64,0.00,,,0.00,Wunderground v.1.15,2013-05-05 11:59:00,
2013-05-05 08:04:00,57.8,44.4,30.47,SSE,153,3.0,7.0,61,0.00,,,0.00,Wunderground v.1.15,2013-05-05 12:04:00,
2013-05-05 08:09:00,58.2,44.8,30.47,SSE,153,4.0,7.0,61,0.00,,,0.00,Wunderground v.1.15,2013-05-05 12:09:00,
2013-05-05 08:15:00,58.6,44.8,30.47,SSE,153,4.0,7.0,60,0.00,,,0.00,Wunderground v.1.15,2013-05-05 12:15:00,
2013-05-05 08:20:00,59.0,45.6,30.47,SSE,152,4.0,7.0,61,0.00,,,0.00,Wunderground v.1.15,2013-05-05 12:20:00,
2013-05-05 08:25:00,59.5,45.6,30.48,SSE,153,3.0,7.0,60,0.00,,,0.00,Wunderground v.1.15,2013-05-05 12:25:00,
2013-05-05 08:30:00,59.8,45.4,30.48,SSE,153,3.0,7.0,59,0.00,,,0.00,Wunderground v.1.15,2013-05-05 12:30:00,
2013-05-05 08:35:00,60.3,46.8,30.48,SSE,156,3.0,7.0,61,0.00,,,0.00,Wunderground v.1.15,2013-05-05 12:35:00,
2013-05-05 08:40:00,60.8,47.3,30.48,SSE,156,2.0,7.0,61,0.00,,,0.00,Wunderground v.1.15,2013-05-05 12:40:00,
2013-05-05 08:50:00,61.6,47.1,30.48,SSE,159,2.0,2.0,59,0.00,,,0.00,Wunderground v.1.15,2013-05-05 12:50:00,
2013-05-05 08:55:00,62.1,46.2,30.48,South,184,3.0,3.0,56,0.00,,,0.00,Wunderground v.1.15,2013-05-05 12:55:00,
2013-05-05 09:00:00,62.9,46.0,30.48,South,184,2.0,2.0,54,0.00,,,0.00,Wunderground v.1.15,2013-05-05 13:00:00,
2013-05-05 09:05:00,62.8,46.4,30.48,South,182,2.0,3.0,55,0.00,,,0.00,Wunderground v.1.15,2013-05-05 13:05:00,
2013-05-05 09:10:00,63.0,46.6,30.48,South,182,2.0,2.0,55,0.00,,,0.00,Wunderground v.1.15,2013-05-05 13:10:00,
2013-05-05 09:15:00,63.7,47.2,30.48,South,180,1.0,3.0,55,0.00,,,0.00,Wunderground v.1.15,2013-05-05 13:15:00,
2013-05-05 09:25:00,63.4,48.4,30.48,East,89,3.0,3.0,58,0.00,,,0.00,Wunderground v.1.15,2013-05-05 13:25:00,
2013-05-05 09:30:00,63.0,48.4,30.48,East,98,5.0,7.0,59,0.00,,,0.00,Wunderground v.1.15,2013-05-05 13:30:00,
2013-05-05 09:35:00,62.8,48.7,30.48,East,98,5.0,7.0,60,0.00,,,0.00,Wunderground v.1.15,2013-05-05 13:35:00,
2013-05-05 09:50:00,63.3,47.8,30.47,East,94,5.0,5.0,57,0.00,,,0.00,Wunderground v.1.15,2013-05-05 13:50:00,
2013-05-05 10:00:00,63.8,48.3,30.47,East,98,4.0,4.0,57,0.00,,,0.00,Wunderground v.1.15,2013-05-05 14:00:00,
2013-05-05 10:05:00,64.3,48.7,30.47,East,97,4.0,5.0,57,0.00,,,0.00,Wunderground v.1.15,2013-05-05 14:05:00,
2013-05-05 10:10:00,64.6,48.5,30.47,East,93,4.0,4.0,56,0.00,,,0.00,Wunderground v.1.15,2013-05-05 14:10:00,
2013-05-05 10:15:00,64.9,49.3,30.47,East,95,4.0,7.0,57,0.00,,,0.00,Wunderground v.1.15,2013-05-05 14:15:00,
2013-05-05 10:20:00,65.1,49.0,30.47,East,91,4.0,7.0,56,0.00,,,0.00,Wunderground v.1.15,2013-05-05 14:20:00,
2013-05-05 10:25:00,65.3,48.2,30.47,East,92,4.0,7.0,54,0.00,,,0.00,Wunderground v.1.15,2013-05-05 14:25:00,
2013-05-05 10:35:00,65.5,47.9,30.47,East,94,4.0,6.0,53,0.00,,,0.00,Wunderground v.1.15,2013-05-05 14:35:00,
2013-05-05 10:40:00,65.7,48.1,30.46,East,96,3.0,7.0,53,0.00,,,0.00,Wunderground v.1.15,2013-05-05 14:40:00,
2013-05-05 10:45:00,66.2,48.0,30.47,East,93,3.0,7.0,52,0.00,,,0.00,Wunderground v.1.15,2013-05-05 14:45:00,
2013-05-05 10:50:00,66.7,47.5,30.47,East,86,4.0,7.0,50,0.00,,,0.00,Wunderground v.1.15,2013-05-05 14:50:00,
2013-05-05 10:55:00,66.8,48.6,30.47,ESE,111,5.0,7.0,52,0.00,,,0.00,Wunderground v.1.15,2013-05-05 14:55:00,
2013-05-05 11:05:00,67.2,47.4,30.46,East,96,4.0,7.0,49,0.00,,,0.00,Wunderground v.1.15,2013-05-05 15:05:00,
2013-05-05 11:10:00,67.4,44.7,30.46,East,88,4.0,7.0,44,0.00,,,0.00,Wunderground v.1.15,2013-05-05 15:10:00,
2013-05-05 11:15:00,67.4,44.1,30.46,East,82,5.0,7.0,43,0.00,,,0.00,Wunderground v.1.15,2013-05-05 15:15:00,
2013-05-05 11:20:00,67.6,44.9,30.46,ESE,105,5.0,5.0,44,0.00,,,0.00,Wunderground v.1.15,2013-05-05 15:20:00,
2013-05-05 11:25:00,67.9,45.8,30.46,ESE,106,4.0,7.0,45,0.00,,,0.00,Wunderground v.1.15,2013-05-05 15:25:00,
2013-05-05 11:30:00,68.1,45.4,30.46,East,90,4.0,7.0,44,0.00,,,0.00,Wunderground v.1.15,2013-05-05 15:30:00,
2013-05-05 11:40:00,67.7,44.4,30.46,SSE,163,5.0,5.0,43,0.00,,,0.00,Wunderground v.1.15,2013-05-05 15:40:00,
2013-05-05 11:45:00,67.8,45.7,30.46,SE,124,5.0,7.0,45,0.00,,,0.00,Wunderground v.1.15,2013-05-05 15:45:00,
2013-05-05 11:50:00,67.9,45.2,30.46,ENE,59,4.0,7.0,44,0.00,,,0.00,Wunderground v.1.15,2013-05-05 15:50:00,
2013-05-05 11:55:00,68.0,44.7,30.45,ESE,109,5.0,7.0,43,0.00,,,0.00,Wunderground v.1.15,2013-05-05 15:55:00,
2013-05-05 12:00:00,68.1,45.9,30.45,ESE,113,4.0,9.0,45,0.00,,,0.00,Wunderground v.1.15,2013-05-05 16:00:00,
2013-05-05 12:10:00,68.5,44.5,30.45,East,100,5.0,8.0,42,0.00,,,0.00,Wunderground v.1.15,2013-05-05 16:10:00,
2013-05-05 12:15:00,68.6,46.4,30.45,South,175,5.0,8.0,45,0.00,,,0.00,Wunderground v.1.15,2013-05-05 16:15:00,
2013-05-05 12:20:00,68.7,45.9,30.45,ESE,119,5.0,5.0,44,0.00,,,0.00,Wunderground v.1.15,2013-05-05 16:20:00,
2013-05-05 12:25:00,69.2,45.1,30.45,East,85,6.0,7.0,42,0.00,,,0.00,Wunderground v.1.15,2013-05-05 16:25:00,
2013-05-05 12:30:00,68.9,42.9,30.44,ENE,65,6.0,6.0,39,0.00,,,0.00,Wunderground v.1.15,2013-05-05 16:30:00,
2013-05-05 12:35:00,69.3,45.2,30.44,ESE,121,4.0,8.0,42,0.00,,,0.00,Wunderground v.1.15,2013-05-05 16:35:00,
2013-05-05 12:40:00,69.3,44.6,30.44,ESE,123,4.0,7.0,41,0.00,,,0.00,Wunderground v.1.15,2013-05-05 16:40:00,
2013-05-05 12:45:00,69.1,43.1,30.44,SSE,150,6.0,7.0,39,0.00,,,0.00,Wunderground v.1.15,2013-05-05 16:45:00,
2013-05-05 12:50:00,69.0,43.0,30.44,East,90,6.0,6.0,39,0.00,,,0.00,Wunderground v.1.15,2013-05-05 16:50:00,
2013-05-05 12:55:00,69.2,43.2,30.44,ESE,123,6.0,6.0,39,0.00,,,0.00,Wunderground v.1.15,2013-05-05 16:55:00,
2013-05-05 13:00:00,69.5,44.1,30.43,ESE,113,5.0,10.0,40,0.00,,,0.00,Wunderground v.1.15,2013-05-05 17:00:00,
2013-05-05 13:10:00,69.2,46.4,30.43,East,93,8.0,10.0,44,0.00,,,0.00,Wunderground v.1.15,2013-05-05 17:10:00,
2013-05-05 13:15:00,69.7,44.9,30.43,East,89,7.0,10.0,41,0.00,,,0.00,Wunderground v.1.15,2013-05-05 17:15:00,
2013-05-05 13:20:00,70.1,45.9,30.43,East,80,8.0,10.0,42,0.00,,,0.00,Wunderground v.1.15,2013-05-05 17:20:00,
2013-05-05 13:25:00,70.3,44.8,30.43,SE,130,9.0,10.0,40,0.00,,,0.00,Wunderground v.1.15,2013-05-05 17:25:00,
2013-05-05 13:30:00,70.2,44.1,30.42,East,82,9.0,10.0,39,0.00,,,0.00,Wunderground v.1.15,2013-05-05 17:30:00,
2013-05-05 13:35:00,70.2,44.1,30.42,East,82,9.0,10.0,39,0.00,,,0.00,Wunderground v.1.15,2013-05-05 17:35:00,
2013-05-05 13:45:00,70.3,44.2,30.42,East,79,8.0,10.0,39,0.00,,,0.00,Wunderground v.1.15,2013-05-05 17:45:00,
2013-05-05 13:50:00,70.4,44.3,30.42,ENE,76,7.0,10.0,39,0.00,,,0.00,Wunderground v.1.15,2013-05-05 17:50:00,
2013-05-05 13:55:00,70.8,43.2,30.42,East,90,7.0,10.0,37,0.00,,,0.00,Wunderground v.1.15,2013-05-05 17:55:00,
2013-05-05 14:00:00,70.9,41.9,30.41,SE,128,6.0,6.0,35,0.00,,,0.00,Wunderground v.1.15,2013-05-05 18:00:00,
2013-05-05 14:05:00,71.1,44.2,30.41,East,86,5.0,8.0,38,0.00,,,0.00,Wunderground v.1.15,2013-05-05 18:05:00,
2013-05-05 14:10:00,71.2,45.6,30.41,SE,126,7.0,7.0,40,0.00,,,0.00,Wunderground v.1.15,2013-05-05 18:10:00,
2013-05-05 14:20:00,71.2,45.6,30.41,SSW,193,8.0,11.0,40,0.00,,,0.00,Wunderground v.1.15,2013-05-05 18:20:00,
2013-05-05 14:25:00,71.4,43.8,30.41,SSE,157,7.0,11.0,37,0.00,,,0.00,Wunderground v.1.15,2013-05-05 18:25:00,
2013-05-05 14:30:00,71.5,42.4,30.41,SE,144,6.0,6.0,35,0.00,,,0.00,Wunderground v.1.15,2013-05-05 18:30:00,
2013-05-05 14:35:00,71.4,43.0,30.41,ESE,112,6.0,7.0,36,0.00,,,0.00,Wunderground v.1.15,2013-05-05 18:35:00,
2013-05-05 14:40:00,71.5,43.1,30.40,ESE,102,7.0,10.0,36,0.00,,,0.00,Wunderground v.1.15,2013-05-05 18:40:00,
2013-05-05 14:50:00,71.9,43.5,30.40,SSE,149,5.0,5.0,36,0.00,,,0.00,Wunderground v.1.15,2013-05-05 18:50:00,
2013-05-05 14:55:00,72.6,44.1,30.40,SSE,150,4.0,6.0,36,0.00,,,0.00,Wunderground v.1.15,2013-05-05 18:55:00,
2013-05-05 15:00:00,72.1,42.2,30.40,SSE,162,7.0,10.0,34,0.00,,,0.00,Wunderground v.1.15,2013-05-05 19:00:00,
2013-05-05 15:05:00,71.9,43.5,30.40,SSE,156,7.0,10.0,36,0.00,,,0.00,Wunderground v.1.15,2013-05-05 19:05:00,
2013-05-05 15:10:00,72.1,42.2,30.39,ESE,105,5.0,5.0,34,0.00,,,0.00,Wunderground v.1.15,2013-05-05 19:10:00,
2013-05-05 15:15:00,72.2,43.0,30.39,ESE,105,5.0,10.0,35,0.00,,,0.00,Wunderground v.1.15,2013-05-05 19:15:00,
2013-05-05 15:25:00,72.4,43.9,30.38,ESE,113,6.0,14.0,36,0.00,,,0.00,Wunderground v.1.15,2013-05-05 19:25:00,
2013-05-05 15:30:00,72.3,42.3,30.38,East,85,7.0,10.0,34,0.00,,,0.00,Wunderground v.1.15,2013-05-05 19:30:00,
2013-05-05 15:35:00,72.6,41.8,30.38,SSE,153,9.0,10.0,33,0.00,,,0.00,Wunderground v.1.15,2013-05-05 19:35:00,
2013-05-05 15:40:00,72.6,41.0,30.38,East,97,8.0,13.0,32,0.00,,,0.00,Wunderground v.1.15,2013-05-05 19:40:00,
2013-05-05 15:45:00,72.6,41.0,30.38,ESE,116,7.0,13.0,32,0.00,,,0.00,Wunderground v.1.15,2013-05-05 19:45:00,
2013-05-05 15:55:00,72.9,42.1,30.37,ESE,102,5.0,10.0,33,0.00,,,0.00,Wunderground v.1.15,2013-05-05 19:55:00,
2013-05-05 15:59:00,72.9,42.1,30.37,ESE,117,6.0,10.0,33,0.00,,,0.00,Wunderground v.1.15,2013-05-05 19:59:00,
2013-05-05 16:04:00,72.8,39.5,30.37,SE,144,6.0,10.0,30,0.00,,,0.00,Wunderground v.1.15,2013-05-05 20:04:00,
2013-05-05 16:10:00,72.7,39.5,30.37,East,99,6.0,10.0,30,0.00,,,0.00,Wunderground v.1.15,2013-05-05 20:10:00,
2013-05-05 16:15:00,73.0,39.7,30.36,East,85,7.0,10.0,30,0.00,,,0.00,Wunderground v.1.15,2013-05-05 20:15:00,
2013-05-05 16:20:00,73.1,39.8,30.36,SE,132,7.0,7.0,30,0.00,,,0.00,Wunderground v.1.15,2013-05-05 20:20:00,
2013-05-05 16:25:00,73.3,40.8,30.36,East,89,6.0,10.0,31,0.00,,,0.00,Wunderground v.1.15,2013-05-05 20:25:00,
2013-05-05 16:30:00,73.4,40.1,30.36,East,94,6.0,6.0,30,0.00,,,0.00,Wunderground v.1.15,2013-05-05 20:30:00,
2013-05-05 16:35:00,73.4,38.3,30.36,ENE,75,6.0,10.0,28,0.00,,,0.00,Wunderground v.1.15,2013-05-05 20:35:00,
2013-05-05 16:40:00,73.7,41.2,30.35,East,92,6.0,10.0,31,0.00,,,0.00,Wunderground v.1.15,2013-05-05 20:40:00,
2013-05-05 16:45:00,73.7,40.3,30.35,ESE,120,5.0,10.0,30,0.00,,,0.00,Wunderground v.1.15,2013-05-05 20:45:00,
2013-05-05 16:50:00,73.8,41.3,30.35,SSE,161,4.0,10.0,31,0.00,,,0.00,Wunderground v.1.15,2013-05-05 20:50:00,
2013-05-05 17:00:00,73.8,40.4,30.35,SE,125,4.0,10.0,30,0.00,,,0.00,Wunderground v.1.15,2013-05-05 21:00:00,
2013-05-05 17:05:00,73.9,40.5,30.35,SE,130,4.0,10.0,30,0.00,,,0.00,Wunderground v.1.15,2013-05-05 21:05:00,
2013-05-05 17:10:00,73.9,42.2,30.35,SE,129,4.0,10.0,32,0.00,,,0.00,Wunderground v.1.15,2013-05-05 21:10:00,
2013-05-05 17:15:00,73.7,39.5,30.35,SSE,153,5.0,10.0,29,0.00,,,0.00,Wunderground v.1.15,2013-05-05 21:15:00,
2013-05-05 17:20:00,73.8,40.4,30.35,SSE,153,5.0,10.0,30,0.00,,,0.00,Wunderground v.1.15,2013-05-05 21:20:00,
2013-05-05 17:30:00,73.6,38.5,30.35,SSE,150,5.0,10.0,28,0.00,,,0.00,Wunderground v.1.15,2013-05-05 21:30:00,
2013-05-05 17:35:00,73.6,39.4,30.34,East,87,5.0,10.0,29,0.00,,,0.00,Wunderground v.1.15,2013-05-05 21:35:00,
2013-05-05 17:40:00,73.7,39.5,30.34,SE,134,5.0,10.0,29,0.00,,,0.00,Wunderground v.1.15,2013-05-05 21:40:00,
2013-05-05 17:45:00,73.8,38.6,30.34,SSE,165,6.0,10.0,28,0.00,,,0.00,Wunderground v.1.15,2013-05-05 21:45:00,
2013-05-05 17:50:00,73.9,38.7,30.34,ESE,123,6.0,10.0,28,0.00,,,0.00,Wunderground v.1.15,2013-05-05 21:50:00,
2013-05-05 17:55:00,73.7,38.6,30.34,South,173,6.0,10.0,28,0.00,,,0.00,Wunderground v.1.15,2013-05-05 21:55:00,
2013-05-05 18:00:00,73.7,39.5,30.34,South,170,5.0,5.0,29,0.00,,,0.00,Wunderground v.1.15,2013-05-05 22:00:00,
2013-05-05 18:10:00,73.7,38.6,30.34,East,92,4.0,4.0,28,0.00,,,0.00,Wunderground v.1.15,2013-05-05 22:10:00,
2013-05-05 18:15:00,73.5,37.5,30.34,SE,140,5.0,5.0,27,0.00,,,0.00,Wunderground v.1.15,2013-05-05 22:15:00,
2013-05-05 18:20:00,73.5,39.3,30.34,SE,127,4.0,5.0,29,0.00,,,0.00,Wunderground v.1.15,2013-05-05 22:20:00,
2013-05-05 18:25:00,73.6,38.5,30.34,SE,145,3.0,5.0,28,0.00,,,0.00,Wunderground v.1.15,2013-05-05 22:25:00,
2013-05-05 18:35:00,73.5,36.5,30.34,ESE,121,3.0,3.0,26,0.00,,,0.00,Wunderground v.1.15,2013-05-05 22:35:00,
2013-05-05 18:40:00,73.5,38.4,30.34,East,79,3.0,3.0,28,0.00,,,0.00,Wunderground v.1.15,2013-05-05 22:40:00,
2013-05-05 18:45:00,73.3,37.3,30.34,ESE,105,5.0,5.0,27,0.00,,,0.00,Wunderground v.1.15,2013-05-05 22:45:00,
2013-05-05 18:50:00,73.1,38.9,30.34,East,101,5.0,6.0,29,0.00,,,0.00,Wunderground v.1.15,2013-05-05 22:50:00,
2013-05-05 18:55:00,73.1,38.0,30.34,ESE,119,3.0,6.0,28,0.00,,,0.00,Wunderground v.1.15,2013-05-05 22:55:00,
2013-05-05 19:00:00,73.1,38.0,30.34,SSE,159,3.0,3.0,28,0.00,,,0.00,Wunderground v.1.15,2013-05-05 23:00:00,
2013-05-05 19:10:00,72.9,36.9,30.34,ESE,121,3.0,12.0,27,0.00,,,0.00,Wunderground v.1.15,2013-05-05 23:10:00,
2013-05-05 19:15:00,72.8,38.7,30.34,SE,144,3.0,12.0,29,0.00,,,0.00,Wunderground v.1.15,2013-05-05 23:15:00,
2013-05-05 19:20:00,72.6,37.6,30.34,ESE,107,3.0,3.0,28,0.00,,,0.00,Wunderground v.1.15,2013-05-05 23:20:00,
2013-05-05 19:25:00,72.4,39.2,30.34,ESE,107,2.0,12.0,30,0.00,,,0.00,Wunderground v.1.15,2013-05-05 23:25:00,
2013-05-05 19:30:00,72.2,38.2,30.34,ESE,107,2.0,2.0,29,0.00,,,0.00,Wunderground v.1.15,2013-05-05 23:30:00,
2013-05-05 19:55:00,71.2,37.3,30.34,ESE,107,0.0,12.0,29,0.00,,,0.00,Wunderground v.1.15,2013-05-05 23:55:00,
2013-05-05 20:00:00,70.7,38.6,30.34,ESE,107,0.0,12.0,31,0.00,,,0.00,Wunderground v.1.15,2013-05-06 00:00:00,
2013-05-05 20:05:00,69.5,43.4,30.34,NE,35,2.0,12.0,39,0.00,,,0.00,Wunderground v.1.15,2013-05-06 00:05:00,
2013-05-05 20:10:00,67.8,45.1,30.34,NNE,31,4.0,12.0,44,0.00,,,0.00,Wunderground v.1.15,2013-05-06 00:10:00,
2013-05-05 20:20:00,65.8,46.1,30.34,NNE,29,3.0,12.0,49,0.00,,,0.00,Wunderground v.1.15,2013-05-06 00:20:00,
2013-05-05 20:25:00,64.8,46.2,30.34,NNE,28,3.0,12.0,51,0.00,,,0.00,Wunderground v.1.15,2013-05-06 00:25:00,
2013-05-05 20:30:00,64.1,46.6,30.35,NNE,28,2.0,2.0,53,0.00,,,0.00,Wunderground v.1.15,2013-05-06 00:30:00,
2013-05-05 20:34:00,63.7,47.2,30.35,NNE,28,1.0,12.0,55,0.00,,,0.00,Wunderground v.1.15,2013-05-06 00:34:00,
2013-05-05 20:40:00,63.4,47.9,30.35,NNE,28,1.0,1.0,57,0.00,,,0.00,Wunderground v.1.15,2013-05-06 00:40:00,
2013-05-05 20:45:00,63.1,48.5,30.35,NNE,28,1.0,12.0,59,0.00,,,0.00,Wunderground v.1.15,2013-05-06 00:45:00,
2013-05-05 20:50:00,62.8,47.8,30.35,NNE,28,1.0,12.0,58,0.00,,,0.00,Wunderground v.1.15,2013-05-06 00:50:00,
2013-05-05 20:55:00,62.6,46.7,30.35,NNE,28,1.0,12.0,56,0.00,,,0.00,Wunderground v.1.15,2013-05-06 00:55:00,
2013-05-05 21:00:00,62.5,47.5,30.35,NNE,28,1.0,12.0,58,0.00,,,0.00,Wunderground v.1.15,2013-05-06 01:00:00,
2013-05-05 21:05:00,62.3,46.9,30.35,NNE,28,0.0,12.0,57,0.00,,,0.00,Wunderground v.1.15,2013-05-06 01:05:00,
2013-05-05 21:10:00,62.1,45.7,30.35,NNE,28,0.0,12.0,55,0.00,,,0.00,Wunderground v.1.15,2013-05-06 01:10:00,
2013-05-05 21:15:00,62.0,45.6,30.36,NNE,28,0.0,12.0,55,0.00,,,0.00,Wunderground v.1.15,2013-05-06 01:15:00,
2013-05-05 21:25:00,61.5,45.2,30.36,NNE,28,0.0,12.0,55,0.00,,,0.00,Wunderground v.1.15,2013-05-06 01:25:00,
2013-05-05 21:30:00,60.4,45.5,30.36,NNE,28,1.0,1.0,58,0.00,,,0.00,Wunderground v.1.15,2013-05-06 01:30:00,
2013-05-05 21:35:00,59.6,45.2,30.36,NNE,28,1.0,12.0,59,0.00,,,0.00,Wunderground v.1.15,2013-05-06 01:35:00,
2013-05-05 21:40:00,59.2,44.9,30.37,NNE,28,0.0,12.0,59,0.00,,,0.00,Wunderground v.1.15,2013-05-06 01:40:00,
2013-05-05 21:45:00,58.9,44.1,30.37,NNE,28,0.0,12.0,58,0.00,,,0.00,Wunderground v.1.15,2013-05-06 01:45:00,
2013-05-05 21:55:00,58.3,46.2,30.37,NNE,28,0.0,12.0,64,0.00,,,0.00,Wunderground v.1.15,2013-05-06 01:55:00,
2013-05-05 22:00:00,57.7,44.8,30.37,NNE,28,0.0,12.0,62,0.00,,,0.00,Wunderground v.1.15,2013-05-06 02:00:00,
2013-05-05 22:05:00,57.9,44.5,30.37,NNE,28,0.0,12.0,61,0.00,,,0.00,Wunderground v.1.15,2013-05-06 02:05:00,
2013-05-05 22:10:00,58.2,43.9,30.37,NNE,28,0.0,12.0,59,0.00,,,0.00,Wunderground v.1.15,2013-05-06 02:10:00,
2013-05-05 22:15:00,57.9,44.1,30.37,NNE,28,0.0,12.0,60,0.00,,,0.00,Wunderground v.1.15,2013-05-06 02:15:00,
2013-05-05 22:20:00,57.3,44.8,30.37,NNE,28,0.0,12.0,63,0.00,,,0.00,Wunderground v.1.15,2013-05-06 02:20:00,
2013-05-05 22:30:00,56.5,44.9,30.37,NNE,28,0.0,12.0,65,0.00,,,0.00,Wunderground v.1.15,2013-05-06 02:30:00,
2013-05-05 22:35:00,56.0,45.2,30.37,NNE,28,1.0,12.0,67,0.00,,,0.00,Wunderground v.1.15,2013-05-06 02:35:00,
2013-05-05 22:40:00,55.4,44.6,30.37,NNE,28,1.0,1.0,67,0.00,,,0.00,Wunderground v.1.15,2013-05-06 02:40:00,
2013-05-05 22:45:00,55.0,45.0,30.37,NNE,28,0.0,12.0,69,0.00,,,0.00,Wunderground v.1.15,2013-05-06 02:45:00,
2013-05-05 22:50:00,54.5,44.2,30.37,NNE,28,0.0,12.0,68,0.00,,,0.00,Wunderground v.1.15,2013-05-06 02:50:00,
2013-05-05 23:00:00,54.3,44.0,30.37,NNE,28,0.0,12.0,68,0.00,,,0.00,Wunderground v.1.15,2013-05-06 03:00:00,
2013-05-05 23:05:00,54.0,44.4,30.37,NNE,28,0.0,12.0,70,0.00,,,0.00,Wunderground v.1.15,2013-05-06 03:05:00,
2013-05-05 23:10:00,53.5,44.7,30.37,NNE,28,0.0,12.0,72,0.00,,,0.00,Wunderground v.1.15,2013-05-06 03:10:00,
2013-05-05 23:15:00,53.1,44.3,30.37,NNE,28,0.0,12.0,72,0.00,,,0.00,Wunderground v.1.15,2013-05-06 03:15:00,
2013-05-05 23:20:00,52.6,44.2,30.37,NNE,28,1.0,1.0,73,0.00,,,0.00,Wunderground v.1.15,2013-05-06 03:20:00,
2013-05-05 23:25:00,52.0,44.0,30.37,NNE,28,1.0,12.0,74,0.00,,,0.00,Wunderground v.1.15,2013-05-06 03:25:00,
2013-05-05 23:35:00,51.4,44.1,30.37,NNE,28,0.0,12.0,76,0.00,,,0.00,Wunderground v.1.15,2013-05-06 03:35:00,
2013-05-05 23:40:00,51.5,43.8,30.37,NNE,28,1.0,12.0,75,0.00,,,0.00,Wunderground v.1.15,2013-05-06 03:40:00,
2013-05-05 23:45:00,51.9,43.9,30.37,NNE,28,1.0,12.0,74,0.00,,,0.00,Wunderground v.1.15,2013-05-06 03:45:00,
2013-05-05 23:50:00,52.1,44.1,30.38,NNE,28,1.0,12.0,74,0.00,,,0.00,Wunderground v.1.15,2013-05-06 03:50:00,
2013-05-05 23:55:00,52.0,44.0,30.38,NE,35,2.0,12.0,74,0.00,,,0.00,Wunderground v.1.15,2013-05-06 03:55:00,